This demonstration page uses our WeatherBlox Daily Observations layout. Learn more.

Left ArrowRight Arrow

39.08367, -84.50855

Hourly Observations for February 28, 2018

Temp ( °F °C ) Dew Point ( °F °C ) Humidity (%) Winds ( mph kmh ) Pressure ( in mb ) Visibility ( mi km ) Precip ( " mm )
12:53 am 00:53 Clear 47 8.3 39 3.9 74 74 N N/A 30.05 1018 10 16 N/A
1:53 am 01:53 Clear 51 10.6 38 3.3 61 61 SSW 8 13 30.04 1017 10 16 N/A
2:53 am 02:53 Clear 49 9.4 38 3.3 66 66 W 5 7 30.03 1017 10 16 N/A
3:53 am 03:53 Clear 48 8.9 40 4.4 74 74 N N/A 30.02 1017 10 16 N/A
4:53 am 04:53 Clear 48 8.9 40 4.4 74 74 N N/A 30.02 1017 10 16 N/A
5:53 am 05:53 Clear 47 8.3 41 5 80 80 N N/A 30.02 1017 10 16 N/A
6:53 am 06:53 Mostly Cloudy 46 7.8 40 4.4 79 79 N N/A 30.01 1016 10 16 N/A
7:53 am 07:53 Sunny 47 8.3 43 6.1 86 86 SW 3 6 30.01 1016 10 16 N/A
8:53 am 08:53 Sunny 51 10.6 44 6.7 77 77 SW 6 9 30.01 1016 10 16 N/A
9:53 am 09:53 Mostly Sunny 56 13.3 47 8.3 72 72 S 13 20 29.99 1016 10 16 N/A
10:53 am 10:53 Cloudy 58 14.4 49 9.4 72 72 S 17 28 29.97 1015 10 16 N/A
11:53 am 11:53 Cloudy 56 13.3 49 9.4 77 77 S 10 17 29.96 1014 10 16 N/A
12:53 pm 12:53 Cloudy 56 13.3 49 9.4 77 77 S 13 20 29.95 1014 10 16 N/A
1:53 pm 13:53 Cloudy 55 12.8 50 10 83 83 SSW 8 13 29.93 1014 10 16 N/A
2:40 pm 14:40 Cloudy with Light Rain 55 12.8 50 10 83 83 SSW 9 15 29.94 1014 5 8 N/A
2:53 pm 14:53 Cloudy with Light Rain 54 12.2 51 10.6 90 90 SSW 6 9 29.92 1013 3 5 N/A
3:53 pm 15:53 Cloudy with Mist and Fog 53 11.7 53 11.7 100 100 S 5 7 29.90 1013 3 5 N/A
4:05 pm 16:05 Cloudy with Mist and Fog 53 11.7 53 11.7 100 100 S 3 6 29.94 1014 3 4 N/A
4:18 pm 16:18 Cloudy with Mist and Fog 53 11.7 53 11.7 100 100 SSE 5 7 29.94 1014 2 3 N/A
4:34 pm 16:34 Cloudy with Mist and Fog 53 11.7 52 11.1 96 96 S 3 6 29.94 1014 6 10 N/A
4:53 pm 16:53 Cloudy with Light Rain 53 11.7 52 11.1 96 96 SSE 8 13 29.88 1012 10 16 N/A
5:29 pm 17:29 Cloudy 53 11.7 51 10.6 93 93 N N/A 29.94 1014 10 16 N/A
5:43 pm 17:43 Cloudy 53 11.7 51 10.6 93 93 N N/A 29.94 1014 10 16 N/A
5:53 pm 17:53 Cloudy 53 11.7 51 10.6 93 93 N N/A 29.90 1012 10 16 N/A
6:13 pm 18:13 Cloudy 53 11.7 51 10.6 93 93 N N/A 29.91 1013 10 16 N/A
6:53 pm 18:53 Cloudy 53 11.7 51 10.6 93 93 S 5 7 29.88 1012 10 16 N/A
7:53 pm 19:53 Cloudy 52 11.1 51 10.6 97 97 N N/A 29.85 1011 10 16 N/A
8:48 pm 20:48 Cloudy 54 12 52 11 94 94 N N/A 29.88 1012 10 16 N/A
8:53 pm 20:53 Cloudy 52 11.1 51 10.6 97 97 N N/A 29.86 1011 10 16 N/A
9:53 pm 21:53 Cloudy 52 11.1 51 10.6 97 97 ESE 3 6 29.85 1011 10 16 N/A
10:36 pm 22:36 Cloudy with Mist and Fog 52 11.1 51 10.6 97 97 N N/A 29.85 1011 5 8 N/A
10:48 pm 22:48 Cloudy with Mist and Fog 52 11 52 11 100 100 N N/A 29.85 1011 3 5 N/A
10:53 pm 22:53 Cloudy with Mist and Fog 52 11.1 52 11.1 100 100 N N/A 29.83 1010 3 5 N/A
11:01 pm 23:01 Cloudy with Mist and Fog 52 11.1 52 11.1 100 100 ENE 3 6 29.85 1011 2 3 N/A
11:25 pm 23:25 Cloudy with Mist and Fog 52 11.1 52 11.1 100 100 NE 5 7 29.85 1011 3 5 N/A
11:53 pm 23:53 Cloudy with Mist and Fog 52 11.1 52 11.1 100 100 NNE 3 6 29.81 1010 4 6 N/A

Powered by AerisWeather